• In Moldova, Republic
  • List of Countries
  • For 7 days
  • Water Temperature
  • Satellite Maps
  • Weather Map
  • Weather Widgets
  • user-avatar
    Login

    Hourly Weather Maun

    Today, 23 March, Saturday

    Time Temperature Precipitation Wind Pressure Humidity
    00:00 +28°C° 0 mm 3 mps 680 mmHg 28%
    01:00 +28°C° 0 mm 4 mps 680 mmHg 30%
    02:00 +28°C° 0 mm 4 mps 680 mmHg 30%
    03:00 +27°C° 0 mm 4 mps 680 mmHg 35%
    04:00 +26°C° 0 mm 4 mps 681 mmHg 39%
    05:00 +26°C° 0 mm 4 mps 681 mmHg 43%
    06:00 +26°C° 0 mm 5 mps 681 mmHg 44%
    07:00 +26°C° 0 mm 5 mps 682 mmHg 45%
    08:00 +26°C° 0 mm 6 mps 683 mmHg 46%
    09:00 +29°C° 0 mm 5 mps 683 mmHg 41%
    10:00 +32°C° 0 mm 5 mps 684 mmHg 35%
    11:00 +34°C° 0 mm 5 mps 684 mmHg 29%
    12:00 +36°C° 0 mm 4 mps 684 mmHg 26%
    13:00 +37°C° 0 mm 4 mps 683 mmHg 22%
    14:00 +39°C° 0 mm 3 mps 683 mmHg 19%
    15:00 +39°C° 0 mm 3 mps 682 mmHg 18%
    16:00 +39°C° 0 mm 3 mps 682 mmHg 18%
    17:00 +39°C° 0 mm 3 mps 681 mmHg 18%
    18:00 +36°C° 0 mm 3 mps 681 mmHg 21%
    19:00 +33°C° 0 mm 3 mps 681 mmHg 25%
    20:00 +29°C° 0 mm 3 mps 680 mmHg 29%
    21:00 +29°C° 0 mm 3 mps 681 mmHg 31%
    22:00 +28°C° 0 mm 3 mps 681 mmHg 32%
    23:00 +27°C° 0 mm 3 mps 681 mmHg 34%

    Tomorrow, 24 March, Sunday

    Time Temperature Precipitation Wind Pressure Humidity
    00:00 +27°C° 0 mm 3 mps 682 mmHg 39%
    01:00 +26°C° 0 mm 4 mps 682 mmHg 45%
    02:00 +26°C° 0 mm 5 mps 682 mmHg 51%
    03:00 +25°C° 0 mm 5 mps 682 mmHg 53%
    04:00 +25°C° 0 mm 5 mps 681 mmHg 56%
    05:00 +23°C° 0 mm 5 mps 681 mmHg 59%
    06:00 +25°C° 0 mm 5 mps 682 mmHg 58%
    07:00 +25°C° 0 mm 5 mps 682 mmHg 57%
    08:00 +24°C° 0 mm 6 mps 683 mmHg 56%
    09:00 +28°C° 0 mm 5 mps 683 mmHg 49%
    10:00 +32°C° 0 mm 5 mps 683 mmHg 41%
    11:00 +34°C° 0 mm 4 mps 684 mmHg 34%
    12:00 +36°C° 0 mm 4 mps 683 mmHg 30%
    13:00 +37°C° 0 mm 3 mps 682 mmHg 25%
    14:00 +39°C° 0 mm 3 mps 682 mmHg 21%
    15:00 +38°C° 0 mm 4 mps 681 mmHg 20%
    16:00 +38°C° 0 mm 4 mps 680 mmHg 20%
    17:00 +39°C° 0 mm 5 mps 680 mmHg 19%
    18:00 +36°C° 0 mm 4 mps 680 mmHg 22%
    19:00 +33°C° 0 mm 4 mps 680 mmHg 26%
    20:00 +30°C° 0 mm 3 mps 680 mmHg 29%
    21:00 +29°C° 0 mm 3 mps 680 mmHg 31%
    22:00 +28°C° 0 mm 2 mps 680 mmHg 32%
    23:00 +27°C° 0 mm 2 mps 680 mmHg 34%

    Day after tomorrow, 25 March, Monday

    Time Temperature Precipitation Wind Pressure Humidity
    00:00 +26°C° 0 mm 2 mps 680 mmHg 34%
    01:00 +26°C° 0 mm 2 mps 680 mmHg 35%
    02:00 +25°C° 0 mm 2 mps 680 mmHg 36%
    03:00 +25°C° 0 mm 2 mps 680 mmHg 39%
    04:00 +24°C° 0 mm 1 mps 680 mmHg 41%
    05:00 +23°C° 0 mm 1 mps 679 mmHg 44%
    06:00 +24°C° 0 mm 1 mps 680 mmHg 43%
    07:00 +25°C° 0 mm 1 mps 680 mmHg 42%
    08:00 +26°C° 0 mm 1 mps 681 mmHg 41%
    09:00 +30°C° 0 mm 1 mps 682 mmHg 35%
    10:00 +34°C° 0 mm 1 mps 682 mmHg 29%
    11:00 +39°C° 0 mm 1 mps 683 mmHg 23%
    12:00 +39°C° 0 mm 2 mps 682 mmHg 20%
    13:00 +40°C° 0 mm 3 mps 681 mmHg 17%
    14:00 +42°C° 0 mm 3 mps 680 mmHg 15%
    15:00 +41°C° 0 mm 4 mps 680 mmHg 15%
    16:00 +41°C° 0 mm 4 mps 679 mmHg 15%
    17:00 +41°C° 0 mm 4 mps 678 mmHg 14%
    18:00 +37°C° 0 mm 4 mps 678 mmHg 18%
    19:00 +34°C° 0 mm 3 mps 678 mmHg 21%
    20:00 +31°C° 0 mm 3 mps 678 mmHg 24%
    21:00 +30°C° 0 mm 3 mps 679 mmHg 26%
    22:00 +30°C° 0 mm 3 mps 679 mmHg 28%
    23:00 +29°C° 0 mm 3 mps 680 mmHg 30%

    26 March, Tuesday

    Time Temperature Precipitation Wind Pressure Humidity
    00:00 +28°C° 0 mm 3 mps 679 mmHg 30%
    01:00 +28°C° 0 mm 2 mps 679 mmHg 31%
    02:00 +28°C° 0 mm 2 mps 679 mmHg 32%
    03:00 +27°C° 0 mm 2 mps 679 mmHg 35%
    04:00 +26°C° 0 mm 2 mps 679 mmHg 37%
    05:00 +25°C° 0 mm 3 mps 679 mmHg 40%
    06:00 +26°C° 0 mm 3 mps 679 mmHg 38%
    07:00 +27°C° 0 mm 3 mps 680 mmHg 37%
    08:00 +28°C° 0 mm 3 mps 681 mmHg 36%
    09:00 +31°C° 0 mm 3 mps 682 mmHg 31%
    10:00 +35°C° 0 mm 3 mps 682 mmHg 27%
    11:00 +38°C° 0 mm 2 mps 683 mmHg 22%
    12:00 +39°C° 0 mm 3 mps 682 mmHg 20%
    13:00 +40°C° 0 mm 3 mps 682 mmHg 17%
    14:00 +42°C° 0 mm 3 mps 681 mmHg 15%
    15:00 +42°C° 0 mm 3 mps 680 mmHg 15%
    16:00 +40°C° 0 mm 3 mps 680 mmHg 16%
    17:00 +40°C° 0 mm 3 mps 680 mmHg 17%
    18:00 +37°C° 0 mm 3 mps 680 mmHg 20%
    19:00 +35°C° 0 mm 3 mps 680 mmHg 23%
    20:00 +32°C° 0 mm 2 mps 680 mmHg 26%
    21:00 +32°C° 0 mm 2 mps 681 mmHg 26%
    22:00 +32°C° 0 mm 2 mps 681 mmHg 26%
    23:00 +32°C° 0 mm 2 mps 682 mmHg 25%

    27 March, Wednesday

    Time Temperature Precipitation Wind Pressure Humidity
    00:00 +31°C° 0 mm 2 mps 681 mmHg 27%
    01:00 +31°C° 0 mm 3 mps 681 mmHg 28%
    02:00 +31°C° 0 mm 3 mps 681 mmHg 29%
    03:00 +32°C° 0 mm 4 mps 681 mmHg 29%
    04:00 +30°C° 0 mm 4 mps 681 mmHg 29%
    05:00 +30°C° 0 mm 4 mps 682 mmHg 30%
    06:00 +30°C° 0 mm 4 mps 682 mmHg 30%
    07:00 +30°C° 0 mm 5 mps 683 mmHg 30%
    08:00 +29°C° 0 mm 5 mps 683 mmHg 31%
    09:00 +33°C° 0 mm 5 mps 684 mmHg 28%
    10:00 +35°C° 0 mm 5 mps 684 mmHg 25%
    11:00 +37°C° 0 mm 4 mps 685 mmHg 22%
    12:00 +38°C° 0 mm 4 mps 684 mmHg 21%
    13:00 +39°C° 0 mm 3 mps 684 mmHg 19%
    14:00 +40°C° 0 mm 3 mps 683 mmHg 17%
    15:00 +40°C° 0 mm 3 mps 683 mmHg 19%
    16:00 +39°C° 0 mm 3 mps 682 mmHg 20%
    17:00 +39°C° 0 mm 2 mps 682 mmHg 21%
    18:00 +36°C° 0 mm 3 mps 682 mmHg 25%
    19:00 +34°C° 0 mm 3 mps 682 mmHg 30%
    20:00 +31°C° 0 mm 3 mps 682 mmHg 35%
    21:00 +31°C° 0 mm 3 mps 683 mmHg 36%
    22:00 +30°C° 0 mm 2 mps 683 mmHg 36%
    23:00 +30°C° 0 mm 1 mps 683 mmHg 37%

    28 March, Thursday

    Time Temperature Precipitation Wind Pressure Humidity
    00:00 +29°C° 0 mm 2 mps 683 mmHg 39%
    01:00 +28°C° 0 mm 2 mps 682 mmHg 42%
    02:00 +27°C° 0 mm 2 mps 682 mmHg 44%
    03:00 +26°C° 0 mm 2 mps 682 mmHg 47%
    04:00 +25°C° 0 mm 2 mps 682 mmHg 50%
    05:00 +25°C° 0 mm 2 mps 682 mmHg 52%
    06:00 +26°C° 0 mm 1 mps 683 mmHg 49%
    07:00 +27°C° 0 mm 1 mps 684 mmHg 46%
    08:00 +28°C° 0 mm 1 mps 684 mmHg 43%
    09:00 +31°C° 0 mm 1 mps 685 mmHg 37%
    10:00 +34°C° 0 mm 1 mps 685 mmHg 30%
    11:00 +39°C° 0 mm 1 mps 686 mmHg 24%
    12:00 +37°C° 0 mm 0 mps 685 mmHg 22%
    13:00 +39°C° 0 mm 0 mps 684 mmHg 19%
    14:00 +40°C° 0 mm 0 mps 684 mmHg 16%
    15:00 +39°C° 0 mm 0 mps 683 mmHg 17%
    16:00 +40°C° 0 mm 1 mps 682 mmHg 18%
    17:00 +37°C° 0 mm 1 mps 682 mmHg 19%
    18:00 +35°C° 0 mm 1 mps 682 mmHg 21%
    19:00 +34°C° 0 mm 1 mps 682 mmHg 23%
    20:00 +32°C° 0 mm 1 mps 682 mmHg 25%
    21:00 +31°C° 0 mm 1 mps 682 mmHg 27%
    22:00 +30°C° 0 mm 2 mps 682 mmHg 30%
    23:00 +29°C° 0 mm 2 mps 682 mmHg 32%
    Show more